H1 CPF 2 NER 2023 12 18 9 352 01 glonass146 H2 2216101 9146 54377 2023 12 18 0 0 0 2023 12 21 23 45 0 900 1 1 0 0 0 1 H9 10 0 60296 0.00000 0 -18536710.845 17546640.181 -132128.812 10 0 60296 900.00000 0 -18298734.826 17527984.873 3074394.779 10 0 60296 1800.00000 0 -17807241.482 17196506.189 6221309.254 10 0 60296 2700.00000 0 -17112426.586 16527193.320 9247600.601 10 0 60296 3600.00000 0 -16270044.304 15507095.297 12094590.563 10 0 60296 4500.00000 0 -15338929.876 14136085.351 14707069.456 10 0 60296 5400.00000 0 -14378410.262 12427099.720 17034362.104 10 0 60296 6300.00000 0 -13445711.452 10405839.826 19031306.648 10 0 60296 7200.00000 0 -12593471.156 8109948.938 20659127.714 10 0 60296 8100.00000 0 -11867461.082 5587696.232 21886187.439 10 0 60296 9000.00000 0 -11304614.223 2896221.428 22688600.196 10 0 60296 9900.00000 0 -10931439.901 99411.470 23050699.281 10 0 60296 10800.00000 0 -10762893.166 -2734504.117 22965346.530 10 0 60296 11700.00000 0 -10801746.311 -5535540.812 22434078.619 10 0 60296 12600.00000 0 -11038489.422 -8234623.396 21467086.699 10 0 60296 13500.00000 0 -11451764.818 -10766217.368 20083028.988 10 0 60296 14400.00000 0 -12009317.897 -13070818.887 18308679.066 10 0 60296 15300.00000 0 -12669425.199 -15097200.081 16178415.627 10 0 60296 16200.00000 0 -13382740.214 -16804316.434 13733562.652 10 0 60296 17100.00000 0 -14094479.581 -18162796.711 11021591.894 10 0 60296 18000.00000 0 -14746857.599 -19155953.086 8095202.597 10 0 60296 18900.00000 0 -15281665.981 -19780269.121 5011296.042 10 0 60296 19800.00000 0 -15642889.233 -20045345.253 1829864.921 10 0 60296 20700.00000 0 -15779244.097 -19973304.323 -1387180.356 10 0 60296 21600.00000 0 -15646534.440 -19597682.744 -4577224.812 10 0 60296 22500.00000 0 -15209720.614 -18961854.846 -7678176.911 10 0 60296 23400.00000 0 -14444614.396 -18117057.878 -10629686.316 10 0 60296 24300.00000 0 -13339126.579 -17120102.231 -13374326.659 10 0 60296 25200.00000 0 -11894013.395 -16030864.735 -15858719.303 10 0 60296 26100.00000 0 -10123089.405 -14909671.981 -18034575.537 10 0 60296 27000.00000 0 -8052897.163 -13814684.964 -19859636.559 10 0 60296 27900.00000 0 -5721847.047 -12799395.956 -21298492.978 10 0 60296 28800.00000 0 -3178862.956 -11910343.282 -22323268.201 10 0 60296 29700.00000 0 -481590.265 -11185140.086 -22914153.042 10 0 60296 30600.00000 0 2305759.436 -10650899.447 -23059781.954 10 0 60296 31500.00000 0 5114837.285 -10323121.266 -22757444.453 10 0 60296 32400.00000 0 7875759.141 -10205086.658 -22013128.465 10 0 60296 33300.00000 0 10519773.061 -10287784.149 -20841395.518 10 0 60296 34200.00000 0 12981882.174 -10550369.680 -19265090.765 10 0 60296 35100.00000 0 15203314.933 -10961140.049 -17314893.853 10 0 60296 36000.00000 0 17133741.239 -11478978.026 -15028719.553 10 0 60296 36900.00000 0 18733143.441 -12055207.730 -12450979.789 10 0 60296 37800.00000 0 19973265.699 -12635781.729 -9631721.311 10 0 60296 38700.00000 0 20838582.638 -13163707.548 -6625655.533 10 0 60296 39600.00000 0 21326748.185 -13581611.251 -3491099.192 10 0 60296 40500.00000 0 21448507.094 -13834330.034 -288846.162 10 0 60296 41400.00000 0 21227073.993 -13871424.563 2919007.907 10 0 60296 42300.00000 0 20697006.892 -13649505.106 6070265.486 10 0 60296 43200.00000 0 19902623.155 -13134273.302 9103828.496 10 0 60296 44100.00000 0 18896024.873 -12302193.265 11960878.077 10 0 60296 45000.00000 0 17734816.788 -11141721.184 14586010.108 10 0 60296 45900.00000 0 16479612.608 -9654040.952 16928304.887 10 0 60296 46800.00000 0 15191434.179 -7853273.911 18942310.642 10 0 60296 47700.00000 0 13929112.328 -5766152.598 20588922.230 10 0 60296 48600.00000 0 12746798.016 -3431170.596 21836138.475 10 0 60296 49500.00000 0 11691687.680 -897242.226 22659683.812 10 0 60296 50400.00000 0 10802057.784 1778073.827 23043482.419 10 0 60296 51300.00000 0 10105690.682 4530714.832 22979975.649 10 0 60296 52200.00000 0 9618757.703 7292531.014 22470276.394 10 0 60296 53100.00000 0 9345206.379 9993880.228 21524156.881 10 0 60296 54000.00000 0 9276677.818 12566293.743 20159869.387 10 0 60296 54900.00000 0 9392958.081 14945103.221 18403802.445 10 0 60296 55800.00000 0 9662945.064 17071920.125 16289978.168 10 0 60296 56700.00000 0 10046090.602 18896864.530 13859399.457 10 0 60296 57600.00000 0 10494257.329 20380450.336 11159258.884 10 0 60296 58500.00000 0 10953911.989 21495047.897 8242023.994 10 0 60296 59400.00000 0 11368562.311 22225862.591 5164416.516 10 0 60296 60300.00000 0 11681333.835 22571388.102 1986305.375 10 0 60296 61200.00000 0 11837576.762 22543315.339 -1230464.476 10 0 60296 62100.00000 0 11787391.283 22165901.036 -4423283.850 10 0 60296 63000.00000 0 11487963.154 21474823.114 -7530007.186 10 0 60296 63900.00000 0 10905609.204 20515571.798 -10490171.377 10 0 60296 64800.00000 0 10017444.863 19341445.291 -13246180.797 10 0 60296 65700.00000 0 8812601.962 18011235.594 -15744434.475 10 0 60296 66600.00000 0 7292944.291 16586703.104 -17936372.753 10 0 60296 67500.00000 0 5473249.907 15129947.325 -19779422.705 10 0 60296 68400.00000 0 3380851.805 13700785.060 -21237823.895 10 0 60296 69300.00000 0 1054751.538 12354246.722 -22283318.731 10 0 60296 70200.00000 0 -1455757.474 11138295.909 -22895694.565 10 0 60296 71100.00000 0 -4092899.787 10091867.543 -23063167.820 10 0 60296 72000.00000 0 -6792585.708 9243306.037 -22782603.543 10 0 60296 72900.00000 0 -9486847.128 8609267.896 -22059566.965 10 0 60296 73800.00000 0 -12106440.571 8194133.378 -20908206.852 10 0 60296 74700.00000 0 -14583509.833 7989950.518 -19350973.470 10 0 60296 75600.00000 0 -16854198.307 7976912.397 -17418177.073 10 0 60296 76500.00000 0 -18861103.295 8124346.392 -15147395.630 10 0 60296 77400.00000 0 -20555471.189 8392172.674 -12582743.346 10 0 60296 78300.00000 0 -21899043.218 8732769.811 -9774014.054 10 0 60296 79200.00000 0 -22865475.934 9093168.264 -6775715.909 10 0 60296 80100.00000 0 -23441278.279 9417478.967 -3646015.923 10 0 60296 81000.00000 0 -23626227.094 9649454.361 -445614.611 10 0 60296 81900.00000 0 -23433244.695 9735073.721 2763427.642 10 0 60296 82800.00000 0 -22887744.407 9625043.608 5918889.852 10 0 60296 83700.00000 0 -22026472.146 9277107.855 8959592.294 10 0 60296 84600.00000 0 -20895893.049 8658069.438 11826577.872 10 0 60296 85500.00000 0 -19550190.988 7745438.648 14464250.339 10 0 60297 0.00000 0 -18048965.021 6528637.668 16821447.461 10 0 60297 900.00000 0 -16454718.234 5009709.308 18852429.967 10 0 60297 1800.00000 0 -14830245.890 3203500.640 20517764.468 10 0 60297 2700.00000 0 -13236029.051 1137310.218 21785087.892 10 0 60297 3600.00000 0 -11727744.139 -1149986.572 22629735.786 10 0 60297 4500.00000 0 -10353991.346 -3609299.925 23035223.849 10 0 60297 5400.00000 0 -9154336.503 -6183120.852 22993573.176 10 0 60297 6300.00000 0 -8157747.949 -8807676.355 22505472.685 10 0 60297 7200.00000 0 -7381493.615 -11415356.543 21580275.076 10 0 60297 8100.00000 0 -6830544.408 -13937314.126 20235825.697 10 0 60297 9000.00000 0 -6497508.998 -16306129.274 18498126.684 10 0 60297 9900.00000 0 -6363102.869 -18458429.510 16400841.870 10 0 60297 10800.00000 0 -6397132.092 -20337355.822 13984651.091 10 0 60297 11700.00000 0 -6559950.476 -21894772.021 11296465.499 10 0 60297 12600.00000 0 -6804328.590 -23093124.738 8388518.507 10 0 60297 13500.00000 0 -7077655.424 -23906875.731 5317349.725 10 0 60297 14400.00000 0 -7324379.031 -24323446.013 2142701.655 10 0 60297 15300.00000 0 -7488581.979 -24343631.775 -1073648.922 10 0 60297 16200.00000 0 -7516581.423 -23981474.446 -4269101.354 10 0 60297 17100.00000 0 -7359442.323 -23263590.507 -7381458.815 10 0 60297 18000.00000 0 -6975295.933 -22227989.660 -10350148.193 10 0 60297 18900.00000 0 -6331363.953 -20922431.839 -13117407.322 10 0 60297 19800.00000 0 -5405601.392 -19402393.125 -15629415.514 10 0 60297 20700.00000 0 -4187887.516 -17728727.180 -17837344.603 10 0 60297 21600.00000 0 -2680713.680 -15965121.487 -19698309.700 10 0 60297 22500.00000 0 -899338.243 -14175456.052 -21176201.127 10 0 60297 23400.00000 0 1128598.510 -12421175.937 -22242381.639 10 0 60297 24300.00000 0 3363983.789 -10758787.908 -22876235.978 10 0 60297 25200.00000 0 5757628.373 -9237585.729 -23065562.887 10 0 60297 26100.00000 0 8252091.373 -7897698.643 -22806802.788 10 0 60297 27000.00000 0 10783857.913 -6768543.589 -22105097.608 10 0 60297 27900.00000 0 13285779.465 -5867744.469 -20974182.325 10 0 60297 28800.00000 0 15689675.730 -5200562.174 -19436110.929 10 0 60297 29700.00000 0 17928990.401 -4759857.514 -17520822.526 10 0 60297 30600.00000 0 19941391.030 -4526586.999 -15265556.188 10 0 60297 31500.00000 0 21671205.494 -4470809.186 -12714125.958 10 0 60297 32400.00000 0 23071594.435 -4553158.024 -9916069.982 10 0 60297 33300.00000 0 24106369.965 -4726720.196 -6925690.074 10 0 60297 34200.00000 0 24751385.576 -4939236.652 -3801000.204 10 0 60297 35100.00000 0 24995440.028 -5135535.011 -602604.061 10 0 60297 36000.00000 0 24840658.159 -5260089.875 2607476.723 10 0 60297 36900.00000 0 24302333.322 -5259602.841 5767001.105 10 0 60297 37800.00000 0 23408238.519 -5085493.133 8814710.888 10 0 60297 38700.00000 0 22197435.421 -4696193.614 11691513.601 10 0 60297 39600.00000 0 20718631.269 -4059155.029 14341623.331 10 0 60297 40500.00000 0 19028152.384 -3152473.603 16713637.735 10 0 60297 41400.00000 0 17187618.825 -1966072.722 18761530.791 10 0 60297 42300.00000 0 15261417.032 -502388.101 20445542.463 10 0 60297 43200.00000 0 13314075.531 1223473.657 21732948.522 10 0 60297 44100.00000 0 11407652.633 3184111.312 22598695.962 10 0 60297 45000.00000 0 9599244.558 5340726.100 23025891.948 10 0 60297 45900.00000 0 7938717.322 7644504.157 23006136.875 10 0 60297 46800.00000 0 6466756.465 10038428.540 22539694.856 10 0 60297 47700.00000 0 5213315.633 12459447.142 21635497.871 10 0 60297 48600.00000 0 4196528.494 14840907.750 20310982.783 10 0 60297 49500.00000 0 3422129.308 17115160.120 18591763.450 10 0 60297 50400.00000 0 2883406.319 19216217.424 16511143.269 10 0 60297 51300.00000 0 2561689.853 21082366.503 14109476.616 10 0 60297 52200.00000 0 2427354.489 22658617.959 11433390.629 10 0 60297 53100.00000 0 2441292.911 23898893.271 8534881.842 10 0 60297 54000.00000 0 2556798.856 24767856.784 5470304.882 10 0 60297 54900.00000 0 2721778.993 25242315.080 2299272.886 10 0 60297 55800.00000 0 2881199.291 25312124.260 -916508.484 10 0 60297 56700.00000 0 2979661.193 24980566.506 -4114450.012 10 0 60297 57600.00000 0 2963997.129 24264179.796 -7232306.381 10 0 60297 58500.00000 0 2785774.011 23192047.967 -10209397.029 10 0 60297 59400.00000 0 2403597.201 21804581.332 -12987795.554 10 0 60297 60300.00000 0 1785116.075 20151839.759 -15513463.541 10 0 60297 61200.00000 0 908645.114 18291469.470 -17737305.987 10 0 60297 62100.00000 0 -235668.931 16286341.091 -19616127.386 10 0 60297 63000.00000 0 -1645183.896 14201988.773 -21113469.852 10 0 60297 63900.00000 0 -3304631.583 12103958.296 -22200317.219 10 0 60297 64800.00000 0 -5186525.635 10055175.378 -22855652.045 10 0 60297 65700.00000 0 -7252091.209 8113444.087 -23066855.473 10 0 60297 66600.00000 0 -9452677.797 6329179.316 -22829943.020 10 0 60297 67500.00000 0 -11731596.504 4743467.005 -22149632.614 10 0 60297 68400.00000 0 -14026305.438 3386531.762 -21039244.317 10 0 60297 69300.00000 0 -16270852.477 2276674.271 -19520434.270 10 0 60297 70200.00000 0 -18398474.096 1419721.098 -17622768.455 10 0 60297 71100.00000 0 -20344242.500 809008.067 -15383144.729 10 0 60297 72000.00000 0 -22047651.323 425896.140 -12845074.401 10 0 60297 72900.00000 0 -23455032.725 240796.564 -10057837.192 10 0 60297 73800.00000 0 -24521705.654 214660.814 -7075525.775 10 0 60297 74700.00000 0 -25213766.216 300871.584 -3955998.265 10 0 60297 75600.00000 0 -25509445.889 447454.320 -759758.760 10 0 60297 76500.00000 0 -25399981.321 599515.499 2451212.567 10 0 60297 77400.00000 0 -24889959.714 701804.396 5614657.247 10 0 60297 78300.00000 0 -23997125.653 701289.982 8669241.141 10 0 60297 79200.00000 0 -22751657.601 549644.037 11555738.823 10 0 60297 80100.00000 0 -21194944.332 205525.493 14218176.982 10 0 60297 81000.00000 0 -19377912.306 -363430.590 16604915.026 10 0 60297 81900.00000 0 -17358973.516 -1179003.686 18669642.388 10 0 60297 82800.00000 0 -15201679.023 -2251226.546 20372273.616 10 0 60297 83700.00000 0 -12972175.459 -3577721.833 21679724.381 10 0 60297 84600.00000 0 -10736569.759 -5143565.792 22566553.771 10 0 60297 85500.00000 0 -8558311.230 -6921686.251 23015460.640 10 0 60298 0.00000 0 -6495699.350 -8873779.909 23017624.501 10 0 60298 900.00000 0 -4599619.317 -10951713.518 22572884.085 10 0 60298 1800.00000 0 -2911601.838 -13099349.677 21689749.692 10 0 60298 2700.00000 0 -1462283.843 -15254726.203 20385248.455 10 0 60298 3600.00000 0 -270336.811 -17352496.975 18684604.414 10 0 60298 4500.00000 0 658093.904 -19326534.394 16620758.734 10 0 60298 5400.00000 0 1329415.287 -21112585.186 14233738.281 10 0 60298 6300.00000 0 1762077.583 -22650868.644 11569883.928 10 0 60298 7200.00000 0 1985551.594 -23888508.243 8680952.903 10 0 60298 8100.00000 0 2038835.910 -24781694.127 5623112.284 10 0 60298 9000.00000 0 1968557.715 -25297484.871 2455843.205 10 0 60298 9900.00000 0 1826748.291 -25415171.922 -759222.476 10 0 60298 10800.00000 0 1668388.465 -25127148.499 -3959509.669 10 0 60298 11700.00000 0 1548829.221 -24439245.733 -7082727.236 10 0 60298 12600.00000 0 1521198.145 -23370521.508 -10068089.797 10 0 60298 13500.00000 0 1633903.028 -21952510.833 -12857509.266 10 0 60298 14400.00000 0 1928339.690 -20227969.478 -15396731.934 10 0 60298 15300.00000 0 2436902.263 -18249164.167 -17636398.206 10 0 60298 16200.00000 0 3181381.048 -16075781.721 -19533003.941 10 0 60298 17100.00000 0 4171816.371 -13772545.414 -21049744.672 10 0 60298 18000.00000 0 5405857.347 -11406638.893 -22157226.531 10 0 60298 18900.00000 0 6868652.910 -9045045.641 -22834030.647 10 0 60298 19800.00000 0 8533279.990 -6751915.023 -23067120.838 10 0 60298 20700.00000 0 10361691.073 -4586064.410 -22852087.527 10 0 60298 21600.00000 0 12306141.662 -2598720.655 -22193224.027 10 0 60298 22500.00000 0 14311038.180 -831593.849 -21103434.467 10 0 60298 23400.00000 0 16315129.346 684637.871 -19603975.769 10 0 60298 24300.00000 0 18253949.867 1931371.024 -17724039.089 10 0 60298 25200.00000 0 20062414.834 2902605.397 -15500179.042 10 0 60298 26100.00000 0 21677456.932 3604938.315 -12975601.861 10 0 60298 27000.00000 0 23040596.811 4057026.691 -10199326.193 10 0 60298 27900.00000 0 24100339.694 4288541.030 -7225232.651 10 0 60298 28800.00000 0 24814298.485 4338656.735 -4111020.360 10 0 60298 29700.00000 0 25150954.948 4254147.298 -917090.554 10 0 60298 30600.00000 0 25090985.607 4087160.538 2294621.340 10 0 60298 31500.00000 0 24628097.061 3892772.191 5461842.626 10 0 60298 32400.00000 0 23769335.843 3726420.448 8523166.235 10 0 60298 33300.00000 0 22534859.818 3641329.876 11419236.517 10 0 60298 34200.00000 0 20957180.489 3686033.566 14093895.150 10 0 60298 35100.00000 0 19079907.515 3902098.177 16495265.320 10 0 60298 36000.00000 0 16956047.378 4322147.999 18576753.571 10 0 60298 36900.00000 0 14645926.530 4968271.674 20297950.329 10 0 60298 37800.00000 0 12214824.825 5850879.275 21625412.117 10 0 60298 38700.00000 0 9730416.888 6968058.718 22533310.720 10 0 60298 39600.00000 0 7260127.025 8305459.774 23003936.943 10 0 60298 40500.00000 0 4868506.758 9836712.012 23028049.290 10 0 60298 41400.00000 0 2614743.177 11524360.915 22605060.629 10 0 60298 42300.00000 0 550401.022 13321284.694 21743058.763 10 0 60298 43200.00000 0 -1282508.189 15172534.281 20458659.819 10 0 60298 44100.00000 0 -2853050.025 17017521.041 18776696.369 10 0 60298 45000.00000 0 -4142420.797 18792461.884 16729745.335 10 0 60298 45900.00000 0 -5144487.258 20432980.201 14357503.766 10 0 60298 46800.00000 0 -5865790.053 21876754.030 11706023.713 10 0 60298 47700.00000 0 -6325011.071 23066100.234 8826820.351 10 0 60298 48600.00000 0 -6551927.576 23950385.692 5775870.331 10 0 60298 49500.00000 0 -6585897.812 24488163.327 2612519.812 10 0 60298 50400.00000 0 -6473942.828 24648942.083 -601676.157 10 0 60298 51300.00000 0 -6268506.699 24414515.282 -3804159.604 10 0 60298 52200.00000 0 -6024991.159 23779790.466 -6932596.474 10 0 60298 53100.00000 0 -5799170.398 22753085.008 -9926099.320 10 0 60298 54000.00000 0 -5644596.959 21355874.595 -12726420.903 10 0 60298 54900.00000 0 -5610109.935 19622004.971 -15279094.478 10 0 60298 55800.00000 0 -5737552.122 17596400.203 -17534497.804 10 0 60298 56700.00000 0 -6059793.694 15333322.000 -19448819.725 10 0 60298 57600.00000 0 -6599146.614 12894253.436 -20984910.486 10 0 60298 58500.00000 0 -7366237.160 10345496.058 -22112999.471 10 0 60298 59400.00000 0 -8359384.365 7755581.039 -22811266.995 10 0 60298 60300.00000 0 -9564510.605 5192602.381 -23066259.806 10 0 60298 61200.00000 0 -10955588.128 2721583.022 -22873143.094 10 0 60298 62100.00000 0 -12495602.759 401982.873 -22235784.982 10 0 60298 63000.00000 0 -14137994.435 -1714548.589 -21166672.646 10 0 60298 63900.00000 0 -15828514.296 -3586082.946 -19686662.308 10 0 60298 64800.00000 0 -17507420.793 -5181908.790 -17824568.377 10 0 60298 65700.00000 0 -19111923.193 -6483552.496 -15616599.934 10 0 60298 66600.00000 0 -20578770.522 -7485283.114 -13105655.534 10 0 60298 67500.00000 0 -21846877.986 -8194082.178 -10340489.947 10 0 60298 68400.00000 0 -22859881.296 -8629081.508 -7374768.786 10 0 60298 69300.00000 0 -23568512.219 -8820494.135 -4266029.198 10 0 60298 70200.00000 0 -23932696.158 -8808084.639 -1074566.578 10 0 60298 71100.00000 0 -23923284.012 -8639244.256 2137731.346 10 0 60298 72000.00000 0 -23523345.824 -8366752.645 5308580.526 10 0 60298 72900.00000 0 -22728971.947 -8046321.125 8376503.746 10 0 60298 73800.00000 0 -21549547.959 -7734021.304 11282017.781 10 0 60298 74700.00000 0 -20007491.444 -7483707.674 13968781.774 10 0 60298 75600.00000 0 -18137461.115 -7344542.917 16384684.915 10 0 60298 76500.00000 0 -15985070.601 -7358730.291 18482852.776 10 0 60298 77400.00000 0 -13605159.735 -7559548.769 20222553.201 10 0 60298 78300.00000 0 -11059694.397 -7969773.935 21569984.692 10 0 60298 79200.00000 0 -8415381.255 -8600551.604 22498932.409 10 0 60298 80100.00000 0 -5741095.527 -9450772.326 22991279.334 10 0 60298 81000.00000 0 -3105227.556 -10506974.115 23037362.777 10 0 60298 81900.00000 0 -573057.372 -11743778.865 22636169.155 10 0 60298 82800.00000 0 1795734.519 -13124845.644 21795362.807 10 0 60298 83700.00000 0 3949317.473 -14604302.460 20531147.604 10 0 60298 84600.00000 0 5845629.111 -16128598.011 18867963.120 10 0 60298 85500.00000 0 7453882.288 -17638696.998 16838020.227 10 0 60299 0.00000 0 8755597.980 -19072527.725 14480684.325 10 0 60299 900.00000 0 9745121.796 -20367580.525 11841715.902 10 0 60299 1800.00000 0 10429601.081 -21463545.936 8972385.722 10 0 60299 2700.00000 0 10828426.277 -22304883.882 5928477.255 10 0 60299 3600.00000 0 10972158.762 -22843212.976 2769198.777 10 0 60299 4500.00000 0 10900991.876 -23039419.029 -443974.465 10 0 60299 5400.00000 0 10662810.948 -22865392.596 -3648504.611 10 0 60299 6300.00000 0 10310935.507 -22305321.090 -6782017.631 10 0 60299 7200.00000 0 9901640.523 -21356479.971 -9783526.842 10 0 60299 8100.00000 0 9491562.994 -20029488.811 -12594628.516 10 0 60299 9000.00000 0 9135104.977 -18348020.925 -15160645.329 10 0 60299 9900.00000 0 8881944.183 -16347978.507 -17431694.589 10 0 60299 10800.00000 0 8774758.384 -14076167.891 -19363660.008 10 0 60299 11700.00000 0 8847260.471 -11588530.611 -20919048.048 10 0 60299 12600.00000 0 9122627.517 -8948004.505 -22067712.424 10 0 60299 13500.00000 0 9612390.183 -6222104.389 -22787433.252 10 0 60299 14400.00000 0 10315829.170 -3480323.165 -23064340.356 10 0 60299 15300.00000 0 11219903.848 -791461.440 -22893173.367 10 0 60299 16200.00000 0 12299715.786 1779003.798 -22277374.471 10 0 60299 17100.00000 0 13519487.452 4171402.907 -21229012.754 10 0 60299 18000.00000 0 14834014.803 6334107.585 -19768542.248 10 0 60299 18900.00000 0 16190532.771 8225423.704 -17924398.826 10 0 60299 19800.00000 0 17530915.449 9815065.860 -15732443.944 10 0 60299 20700.00000 0 18794118.858 11085153.988 -13235266.126 10 0 60299 21600.00000 0 19918764.047 12030692.313 -10481353.652 10 0 60299 22500.00000 0 20845752.453 12659512.407 -7524154.299 10 0 60299 23400.00000 0 21520804.009 12991684.406 -4421040.237 10 0 60299 24300.00000 0 21896811.674 13058422.551 -1232197.903 10 0 60299 25200.00000 0 21935913.694 12900532.241 1980535.779 10 0 60299 26100.00000 0 21611196.590 12566464.847 5154868.441 10 0 60299 27000.00000 0 20907957.289 12110062.830 8229255.571 10 0 60299 27900.00000 0 19824471.112 11588090.566 11144088.968 10 0 60299 28800.00000 0 18372232.971 11057655.081 13842847.538 10 0 60299 29700.00000 0 16575660.967 10573625.421 16273188.460 10 0 60299 30600.00000 0 14471273.886 10186159.301 18387957.999 10 0 60299 31500.00000 0 12106375.917 9938441.124 20146102.775 10 0 60299 32400.00000 0 9537302.232 9864726.563 21513464.325 10 0 60299 33300.00000 0 6827297.191 9988776.130 22463441.944 10 0 60299 34200.00000 0 4044112.088 10322743.948 22977511.241 10 0 60299 35100.00000 0 1257420.989 10866569.070 23045588.448 10 0 60299 36000.00000 0 -1463839.322 11607895.789 22666233.274 10 0 60299 36900.00000 0 -4054095.837 12522527.430 21846685.937 10 0 60299 37800.00000 0 -6453624.112 13575395.816 20602736.976 10 0 60299 38700.00000 0 -8610788.762 14722007.015 18958431.459 10 0 60299 39600.00000 0 -10483946.874 15910303.828 16945612.320 10 0 60299 40500.00000 0 -12042935.350 17082867.689 14603310.619 10 0 60299 41400.00000 0 -13270080.274 18179368.018 11976993.619 10 0 60299 42300.00000 0 -14160686.216 19139156.088 9117684.578 10 0 60299 43200.00000 0 -14722985.227 19903893.899 6080970.955 10 0 60299 44100.00000 0 -14977547.996 20420106.568 2925920.258 10 0 60299 45000.00000 0 -14956182.571 20641549.526 -286074.975 10 0 60299 45900.00000 0 -14700367.854 20531289.397 -3492499.875 10 0 60299 46800.00000 0 -14259289.093 20063409.405 -6630943.265 10 0 60299 47700.00000 0 -13687559.603 19224266.059 -9640321.937 10 0 60299 48600.00000 0 -13042726.406 18013242.999 -12462078.227 10 0 60299 49500.00000 0 -12382666.604 16442969.375 -15041326.573 10 0 60299 50400.00000 0 -11762985.804 14538992.944 -17327925.905 10 0 60299 51300.00000 0 -11234529.549 12338921.297 -19277456.571 10 0 60299 52200.00000 0 -10841113.518 9891067.055 -20852082.702 10 0 60299 53100.00000 0 -10617568.691 7252653.778 -22021283.462 10 0 60299 54000.00000 0 -10588183.840 4487657.535 -22762439.541 10 0 60299 54900.00000 0 -10765610.742 1664374.111 -23061264.251 10 0 60299 55800.00000 0 -11150277.666 -1147187.002 -22912071.710 10 0 60299 56700.00000 0 -11730335.211 -3877973.896 -22317877.805 10 0 60299 57600.00000 0 -12482136.136 -6462518.474 -21290332.748 10 0 60299 58500.00000 0 -13371228.472 -8841409.446 -19849487.182 10 0 60299 59400.00000 0 -14353819.755 -10963510.573 -18023396.825 10 0 60299 60300.00000 0 -15378650.606 -12787833.377 -15847573.526 10 0 60299 61200.00000 0 -16389198.804 -14284987.955 -13364293.484 10 0 60299 62100.00000 0 -17326121.275 -15438153.140 -10621775.959 10 0 60299 63000.00000 0 -18129831.469 -16243527.200 -7673248.208 10 0 60299 63900.00000 0 -18743103.899 -16710241.851 -4575914.633 10 0 60299 64800.00000 0 -19113596.493 -16859744.654 -1389849.892 10 0 60299 65700.00000 0 -19196184.745 -16724676.996 1823162.752 10 0 60299 66600.00000 0 -18955009.514 -16347295.768 5000825.446 10 0 60299 67500.00000 0 -18365152.235 -15777505.892 8081529.191 10 0 60299 68400.00000 0 -17413866.792 -15070586.951 11005543.553 10 0 60299 69300.00000 0 -16101315.856 -14284709.837 13716169.831 10 0 60299 70200.00000 0 -14440780.020 -13478348.000 16160835.647 10 0 60299 71100.00000 0 -12458329.991 -12707692.112 18292110.163 10 0 60299 72000.00000 0 -10191974.392 -12024176.694 20068620.671 10 0 60299 72900.00000 0 -7690317.344 -11472222.520 21455853.256 10 0 60299 73800.00000 0 -5010780.306 -11087289.506 22426822.459 10 0 60299 74700.00000 0 -2217460.611 -10894321.916 22962597.202 10 0 60299 75600.00000 0 621285.788 -10906651.364 23052672.902 10 0 60299 76500.00000 0 3435438.456 -11125404.118 22695182.434 10 0 60299 77400.00000 0 6155977.025 -11539438.274 21896941.391 10 0 60299 78300.00000 0 8717506.586 -12125814.274 20673326.130 10 0 60299 79200.00000 0 11060735.672 -12850779.990 19047986.044 10 0 60299 80100.00000 0 13134704.287 -13671229.913 17052394.628 10 0 60299 81000.00000 0 14898669.509 -14536577.898 14725246.999 10 0 60299 81900.00000 0 16323570.134 -15390965.201 12111714.601 10 0 60299 82800.00000 0 17393009.168 -16175711.005 9262570.870 10 0 60299 83700.00000 0 18103713.055 -16831901.904 6233204.419 10 0 60299 84600.00000 0 18465448.531 -17303010.477 3082538.880 10 0 60299 85500.00000 0 18500400.930 -17537431.411 -128119.210 99